Wind_Speed
4 4 3 5 7 8 8 7 6 5 6 7 6 5 4 4 2 4 3 5 1 2 3 3 4 8 11 10 16 23 17 12 18 21 24 27 27 29 29 31 32 34 35 33 30 29 27 26 26 26 26 25 25 24 24 25 25 25 26 28 29 29 30 31 32 32 32 32 32 31 31 31 32 33 34 35 35 35 34 34 34 34 33 33 33 32
4 5 7 7 8 7 6 7 7 6 6 5 6 5 2 2 3 2 2 4 3 1 2 2 4 9 11 11 16 20 13 12 20 22 25 29 29 31 31 33 34 34 34 32 30 29 26 26 25 25 25 26 26 25 25 25 24 23 25 26 27 27 30 31 31 32 32 32 32 31 30 30 30 31 32 33 34 34 34 34 35 35 34 33 34 34
3 4 9 7 6 7 6 5 7 7 6 5 4 5 2 2 2 3 2 4 5 1 3 4 6 10 11 10 16 18 13 17 23 22 24 28 29 31 31 32 33 32 32 30 29 27 26 26 25 25 26 25 26 25 26 26 25 25 26 25 25 26 28 29 30 31 32 31 32 32 31 31 31 31 32 32 33 34 34 35 35 35 35 34 34 34
3 5 7 7 9 8 6 4 8 7 4 4 4 5 2 2 1 1 2 3 3 2 1 4 5 8 8 6 11 13 12 16 18 18 21 23 24 26 25 26 27 27 26 23 21 19 19 21 22 23 23 24 25 26 27 27 27 27 26 24 24 24 25 26 28 30 30 31 31 32 32 32 33 33 33 33 34 35 36 36 36 37 36 36 35 34
4 5 3 9 7 7 7 4 7 6 2 1 3 6 3 3 4 2 1 2 2 3 3 3 5 7 5 5 7 6 5 8 10 12 15 16 17 19 19 20 21 21 20 17 15 13 13 14 14 16 17 19 21 23 24 25 25 25 24 23 23 23 24 24 26 27 29 31 32 33 34 34 35 36 36 36 36 36 36 36 36 37 37 37 36 36
4 3 5 9 4 5 8 3 5 7 3 2 3 6 6 6 6 2 2 4 4 4 4 5 4 6 5 5 7 5 6 8 8 9 12 12 12 14 17 18 17 16 15 14 13 11 11 10 10 11 12 14 15 16 17 19 21 22 23 23 23 23 23 23 24 26 28 30 31 33 34 35 36 36 37 37 36 35 36 35 35 36 36 36 37 37
2 1 4 7 6 6 7 3 5 6 6 1 4 5 6 6 7 5 4 4 2 2 3 4 3 5 7 5 7 6 8 10 9 8 12 14 13 12 13 14 11 8 8 7 8 8 8 8 7 8 8 11 12 12 14 15 17 18 19 21 22 22 22 22 23 24 26 28 30 32 33 34 34 35 36 35 34 35 35 36 36 36 36 36 37 38
2 3 5 6 6 6 5 3 5 6 8 3 3 6 7 7 8 6 6 5 2 3 5 5 4 2 6 6 7 6 7 10 9 9 12 15 14 10 6 4 4 4 4 4 5 6 7 6 5 5 6 8 9 10 11 12 13 14 16 18 19 21 22 22 22 23 25 26 28 30 32 33 34 35 35 34 35 35 36 37 37 37 37 37 37 37
1 3 3 5 6 4 4 4 5 8 6 3 4 7 6 6 7 5 6 4 1 2 4 5 2 2 6 7 6 6 5 8 9 8 10 12 12 12 13 14 15 14 12 9 7 8 10 10 8 5 3 4 5 7 8 9 10 12 13 16 17 19 20 21 22 22 23 25 27 29 31 33 34 34 35 35 35 36 36 37 37 37 37 37 37 37
1 1 4 6 5 4 4 1 4 5 2 5 6 7 6 6 6 5 5 4 3 2 4 6 1 1 5 6 4 3 2 6 7 6 7 9 11 13 16 17 16 15 12 9 8 8 9 11 11 8 6 3 1 2 5 6 8 10 12 14 16 17 18 19 21 22 23 24 26 28 30 31 33 33 34 35 35 35 36 36 36 36 36 36 36 36
2 1 0 3 3 5 5 3 2 2 5 10 7 7 7 7 5 4 3 4 4 2 6 6 2 1 3 6 4 2 3 5 2 3 6 8 11 13 14 15 14 12 10 9 8 8 9 10 10 9 8 7 5 4 2 2 4 6 8 10 12 13 15 17 19 21 22 23 25 27 28 30 30 31 32 33 33 33 33 33 33 32 32 33 33 34
4 3 1 2 0 5 7 5 4 4 6 8 5 5 5 4 5 4 4 4 2 4 6 4 2 2 3 5 4 5 6 5 3 2 5 8 9 11 13 13 13 13 12 11 11 10 10 10 10 9 8 9 8 7 6 5 4 4 4 6 8 9 12 14 17 19 20 22 23 25 26 27 28 29 30 30 30 30 29 29 29 29 29 30 30 32
2 1 2 3 2 4 6 5 4 5 5 5 5 6 5 2 3 3 3 1 3 6 4 2 1 2 5 8 8 10 9 6 7 8 6 7 7 8 11 13 14 15 17 17 17 16 15 13 11 10 9 9 9 8 8 8 7 7 8 9 10 11 12 14 15 17 19 20 21 22 23 25 25 26 27 28 27 27 26 26 26 27 27 27 27 29
1 4 3 2 2 5 4 6 4 0 1 4 5 5 4 3 2 2 4 2 3 4 3 2 1 2 4 5 8 12 9 7 9 10 8 6 5 5 10 13 15 18 21 22 23 22 20 18 15 13 11 9 7 7 7 8 10 11 12 13 15 15 16 16 16 16 17 18 19 20 22 23 24 24 25 25 25 25 24 24 24 24 24 25 25 25
4 4 4 3 2 5 5 4 6 6 4 3 3 6 5 5 5 4 4 3 4 3 3 3 2 3 2 1 6 9 9 8 8 9 10 8 4 3 8 13 17 20 22 22 22 22 22 20 19 17 14 11 9 7 7 8 10 12 14 15 17 17 17 18 17 16 17 17 18 20 22 22 23 23 23 24 24 24 23 23 23 23 22 23 22 22
4 4 5 2 1 7 6 3 5 7 2 1 2 5 3 4 5 3 3 5 3 1 2 2 3 4 3 4 7 7 6 6 4 4 6 6 3 4 10 15 19 19 19 19 19 21 21 20 19 18 17 15 13 11 10 9 10 12 13 14 16 17 18 18 18 18 18 18 18 20 22 22 22 22 23 23 23 22 22 22 21 21 21 21 21 21
3 3 5 3 2 2 2 2 3 4 3 2 2 3 4 4 7 5 2 1 3 1 3 2 3 5 3 5 8 4 3 4 2 2 3 7 6 7 13 17 17 17 18 18 19 19 20 20 20 20 19 18 17 16 14 12 11 12 12 13 15 17 18 19 19 20 20 20 21 21 22 22 22 23 23 22 22 21 21 21 21 21 21 21 22 22
5 1 4 1 1 2 2 4 5 4 4 5 3 5 4 2 5 4 1 3 4 2 4 1 4 4 1 3 7 5 3 2 1 3 7 9 8 11 16 16 16 17 18 18 18 17 17 17 19 20 21 21 20 19 18 15 12 10 11 13 15 16 18 19 20 22 22 22 23 23 24 24 23 23 24 23 22 22 22 22 22 23 22 22 23 24
5 2 4 1 2 3 3 4 3 5 4 4 5 4 4 3 1 2 2 1 1 2 4 4 3 3 4 5 3 1 4 4 4 4 6 9 12 15 16 16 15 16 15 15 15 15 14 15 18 21 22 22 23 22 21 19 16 12 10 13 16 18 19 20 21 23 24 24 24 24 25 26 25 24 25 25 24 25 25 24 24 24 23 24 25 25
4 3 2 2 1 1 3 2 4 0 4 4 4 3 3 2 4 3 2 3 3 2 3 4 4 3 6 6 5 7 7 7 7 5 5 9 13 14 15 16 15 14 13 13 14 14 14 15 19 22 23 23 24 23 22 21 19 15 12 15 19 20 20 20 22 23 25 25 25 24 24 26 26 26 27 27 28 28 28 27 26 25 25 25 26 27
3 3 3 1 3 1 2 3 7 7 4 3 3 4 2 1 3 2 1 3 4 4 2 2 4 5 6 4 8 9 7 9 9 8 7 9 12 13 14 15 13 12 12 12 14 16 17 19 21 23 22 21 20 20 20 20 18 15 14 17 20 20 19 19 19 21 23 25 25 24 24 24 26 27 29 29 30 31 30 29 28 27 28 28 28 29
2 3 4 2 0 4 4 4 4 6 6 6 6 7 6 4 4 3 2 1 2 3 4 3 4 7 5 3 6 7 6 10 11 12 12 10 11 12 13 14 11 11 12 14 17 18 20 21 21 20 19 18 17 16 17 17 16 13 14 17 19 20 20 20 20 21 23 24 25 25 24 24 24 25 28 30 32 33 33 32 30 30 31 31 30 31
3 4 5 2 3 6 5 4 1 2 3 4 3 4 5 4 5 6 5 3 1 1 2 3 2 7 5 1 2 4 7 12 14 15 13 9 9 11 12 10 8 11 15 17 18 19 21 20 18 18 17 17 16 15 15 15 15 14 15 17 19 21 22 23 24 24 25 26 26 26 25 25 24 24 26 29 31 33 34 35 35 35 35 35 34 35
3 4 4 1 3 4 5 5 3 2 3 2 1 2 5 3 3 5 5 4 3 3 3 3 3 7 6 3 1 2 8 14 15 13 10 8 9 9 7 4 9 16 19 18 19 21 22 20 19 19 19 18 17 16 17 17 18 17 18 19 19 21 21 22 24 24 25 27 27 27 27 26 26 26 26 27 29 32 34 35 36 37 38 38 38 38
5 2 4 3 2 3 4 4 3 2 2 3 3 2 5 5 6 4 2 3 2 5 7 5 5 7 6 4 2 4 5 8 10 8 7 7 8 6 5 10 16 20 21 21 22 24 26 27 26 24 24 22 21 20 20 20 19 19 18 18 18 19 19 20 21 22 23 24 26 26 27 28 28 29 29 28 28 29 31 33 35 35 36 37 38 38
8 3 5 6 5 6 6 5 4 4 3 1 2 5 6 7 9 5 3 3 4 6 7 6 7 5 3 3 1 2 2 5 6 4 4 4 5 8 14 20 24 24 24 25 27 27 28 28 27 26 25 23 21 21 20 19 18 18 17 17 18 19 19 19 21 21 22 22 23 24 24 25 27 29 30 30 29 28 28 30 31 33 34 34 35 37
4 2 6 8 9 11 8 5 4 8 7 5 6 8 7 8 10 7 4 5 7 3 3 8 8 5 5 4 6 6 4 5 4 2 3 6 12 17 21 24 25 23 21 21 21 22 23 23 23 23 23 21 20 19 18 18 18 18 19 18 18 20 20 21 22 22 22 22 22 22 21 22 23 25 28 29 30 30 30 30 31 32 33 34 35 37
4 3 7 7 9 8 5 5 6 8 11 11 10 11 10 10 11 9 8 10 6 4 6 10 6 7 11 7 7 9 5 3 3 7 9 12 17 20 21 19 16 14 12 13 14 16 19 20 20 19 18 18 18 18 17 18 19 20 21 21 21 21 22 23 23 23 24 23 23 22 22 23 24 25 27 28 29 30 31 32 33 34 34 35 37 38
4 5 6 5 7 5 2 4 7 8 8 8 10 12 12 12 13 13 15 15 9 7 13 9 9 12 14 7 8 11 5 1 3 7 10 13 15 16 14 11 9 8 8 10 12 13 14 14 15 15 15 16 17 18 19 20 21 22 23 24 24 25 26 27 27 27 26 26 26 26 26 27 27 28 29 30 30 30 31 32 33 34 36 37 38 39
3 4 3 5 6 4 2 4 6 8 6 4 7 11 11 14 16 17 18 17 12 11 11 3 6 13 10 6 9 11 5 2 2 7 12 12 8 7 6 6 7 6 7 9 9 9 9 9 11 12 14 15 16 19 20 22 23 25 26 27 28 29 31 32 33 32 31 31 31 31 31 32 31 32 32 32 33 33 33 33 33 34 35 36 38 39
2 2 1 5 4 4 3 4 4 6 7 5 5 6 9 13 15 16 15 10 6 8 10 4 6 12 7 10 12 15 11 5 3 7 9 5 3 3 4 6 6 6 7 6 5 5 6 7 9 11 13 15 17 19 21 23 25 26 27 29 30 32 34 36 37 37 37 36 36 36 37 37 37 37 36 36 36 36 36 36 37 37 37 36 37 37
1 1 2 4 3 5 3 5 4 5 5 1 4 8 11 11 10 10 9 6 7 10 11 7 9 12 6 11 10 11 10 7 8 7 5 3 4 4 5 5 4 3 4 4 4 5 6 7 9 11 12 14 16 18 21 23 25 26 28 30 32 33 35 36 38 39 39 39 39 39 40 40 41 41 40 39 38 38 38 38 38 39 40 40 39 38
2 3 2 3 4 2 0 6 6 6 5 2 9 12 12 10 7 4 3 5 10 11 8 8 11 11 4 8 6 3 5 7 9 8 7 6 7 6 5 4 3 2 2 4 6 7 8 9 11 13 14 16 17 19 21 23 25 26 27 29 30 31 33 34 36 37 38 39 40 41 41 42 44 45 45 43 42 41 40 39 39 38 39 40 41 41
3 4 1 1 2 2 3 6 6 3 5 7 5 7 11 11 9 7 5 10 11 8 6 7 9 8 2 5 6 6 5 4 5 9 9 7 7 7 6 5 4 4 4 6 7 8 10 11 12 14 15 17 18 20 21 23 25 27 27 28 30 31 32 34 35 36 37 37 38 39 40 42 44 46 46 45 44 43 43 42 41 39 38 38 39 41
4 4 2 1 1 1 3 5 3 5 7 4 0 4 9 10 11 11 12 12 10 8 9 10 10 12 10 6 5 7 7 5 8 13 12 8 7 7 6 5 5 5 5 7 8 10 11 12 14 16 17 18 19 21 22 24 25 27 28 29 31 32 33 34 35 35 36 37 37 38 38 39 41 43 44 44 43 43 43 43 42 41 39 38 39 40
5 4 3 2 2 1 2 4 5 3 2 3 3 3 3 3 6 8 10 10 9 11 12 13 15 16 13 6 5 7 8 11 15 15 11 8 6 6 6 5 5 5 5 7 8 10 11 13 15 16 17 18 20 21 23 25 26 28 29 30 31 33 33 34 35 36 36 37 37 38 38 38 39 40 41 42 42 42 42 42 42 42 40 39 39 39
6 6 3 3 4 3 3 5 3 4 5 7 7 4 4 6 7 6 8 9 8 12 14 13 14 13 8 5 9 10 12 14 13 11 8 7 7 6 6 5 4 4 4 5 7 8 9 11 13 15 17 18 19 21 24 25 27 29 30 30 32 33 34 35 36 36 37 37 38 38 38 38 38 39 40 41 42 42 42 42 42 43 42 42 40 39
4 5 5 6 5 4 5 6 3 3 8 10 7 5 8 12 11 9 8 7 6 12 19 15 11 10 8 9 10 12 13 9 4 8 8 4 6 5 5 5 4 5 6 6 7 8 9 10 12 13 15 17 19 20 22 25 27 28 30 31 32 33 34 35 36 37 38 38 38 39 39 40 40 40 40 41 42 42 42 42 43 43 44 44 43 41
1 1 3 5 4 4 6 7 6 7 7 7 6 3 7 15 15 10 6 8 6 11 19 15 10 12 10 11 14 13 10 4 5 7 7 2 4 3 4 5 5 7 9 9 11 11 11 13 13 14 15 17 18 20 21 24 25 27 28 30 31 32 33 34 35 36 37 38 39 39 40 40 41 41 41 42 42 43 43 42 42 43 43 43 43 42
2 2 2 5 5 5 7 6 5 5 4 4 6 4 5 14 15 10 4 9 4 11 18 17 15 15 12 13 14 10 6 5 5 5 3 1 1 2 5 6 8 10 11 12 14 15 15 16 16 17 18 18 20 21 22 24 25 26 27 28 29 30 31 33 34 35 36 37 38 39 39 40 41 41 42 42 43 43 44 44 43 42 42 42 42 42
3 2 3 6 6 7 8 5 2 2 4 5 5 5 9 12 10 6 7 6 8 15 16 16 15 15 14 15 12 8 6 6 7 5 2 2 2 3 6 8 10 12 14 15 16 18 19 20 20 20 20 21 22 23 24 26 27 27 28 28 29 30 31 32 33 34 35 36 37 38 38 39 40 41 41 42 43 44 44 45 45 43 42 41 41 42
4 3 3 5 5 6 6 4 2 3 5 6 7 8 12 9 4 6 5 7 17 20 15 14 16 14 14 12 10 9 8 7 5 3 2 3 5 7 9 12 13 14 16 17 18 20 22 22 23 23 23 23 24 25 27 29 29 30 30 31 31 32 33 34 35 35 36 36 37 38 38 38 39 40 41 42 42 43 44 44 45 45 44 42 41 41
6 4 3 5 5 4 4 5 5 5 5 12 12 5 5 6 4 7 10 11 17 21 17 16 16 14 13 10 9 8 6 3 2 1 2 4 8 11 13 15 17 18 19 20 21 22 24 25 25 25 25 25 26 27 29 31 32 32 33 33 34 35 36 36 37 37 37 38 38 38 38 38 39 39 41 42 42 42 42 42 43 44 44 42 41 40
5 5 4 4 5 5 5 7 6 3 5 18 16 4 6 10 7 10 15 14 16 18 17 15 14 13 11 9 7 5 3 2 3 5 7 8 11 14 16 18 20 21 22 22 23 24 25 27 27 27 27 27 27 28 29 31 34 35 35 35 35 36 38 38 39 40 40 39 39 39 39 39 38 39 41 42 42 42 41 41 41 41 42 41 40 39
6 6 4 4 4 5 4 5 4 1 7 18 14 5 8 16 14 11 15 19 20 19 15 14 13 11 10 8 6 4 3 5 6 8 10 12 14 16 18 19 21 22 23 24 24 25 27 28 30 30 30 29 28 29 30 32 34 36 37 37 37 38 39 40 41 42 42 42 42 41 41 40 39 39 41 42 42 42 41 40 39 39 39 38 38 37
3 3 4 2 2 2 2 3 4 3 6 12 12 8 10 15 13 12 16 20 23 21 15 13 13 11 10 8 5 3 4 6 7 10 12 14 16 18 19 21 22 23 25 25 26 27 29 31 32 34 34 34 32 32 33 34 35 37 39 39 39 39 40 41 42 43 43 44 43 42 42 42 41 41 41 41 42 42 41 40 38 36 36 35 35 34
2 4 4 2 3 4 3 3 4 6 7 10 11 12 15 17 16 15 17 20 21 19 15 13 12 11 9 7 4 3 5 8 9 12 14 15 17 19 21 22 23 24 26 27 28 30 32 34 35 37 38 39 37 36 37 37 38 38 39 40 41 41 41 42 42 43 43 44 44 43 42 42 42 41 41 41 41 40 40 38 35 34 33 32 32 31
3 7 5 3 4 4 3 2 4 7 6 9 12 14 16 18 17 15 15 17 18 17 14 12 10 9 7 5 5 5 7 10 12 14 16 18 19 21 23 25 26 27 28 29 31 33 35 37 38 39 41 42 42 41 41 41 41 40 40 41 42 42 43 43 43 43 43 43 43 43 41 40 40 40 40 41 40 39 38 36 33 31 30 29 28 28
5 7 5 3 3 2 1 1 5 6 3 5 11 14 15 16 16 15 14 15 15 15 13 12 9 7 6 5 5 7 8 10 13 16 18 20 22 24 26 28 29 30 32 32 33 35 37 38 40 41 43 44 44 44 45 45 44 43 41 41 42 43 44 44 43 43 42 42 42 42 40 39 40 40 40 41 41 38 35 33 31 29 27 26 26 26
5 4 3 3 3 3 2 6 11 6 1 8 14 14 13 14 13 14 16 15 14 13 12 10 8 6 6 6 7 9 11 13 15 17 20 22 24 26 28 30 31 33 34 35 36 37 38 39 41 42 44 45 45 46 46 46 46 44 42 42 42 43 44 44 44 44 43 41 40 40 39 39 39 40 41 42 41 38 35 31 29 27 26 25 25 26
8 7 6 5 5 5 6 14 20 11 4 13 18 15 13 14 12 12 15 14 12 12 10 8 7 7 7 8 10 12 14 16 18 20 22 24 25 27 29 31 33 34 35 36 37 38 39 40 41 42 44 45 45 45 45 46 45 45 43 42 41 42 43 43 43 43 42 40 39 37 37 37 38 39 40 41 41 39 35 32 28 26 25 25 25 26
Wind_Direction
123 127 159 181 188 191 189 163 144 148 137 139 128 111 147 163 225 248 264 306 36 133 260 247 247 272 271 272 273 275 283 284 273 271 267 264 262 261 261 261 261 261 264 268 268 266 264 264 263 262 259 256 252 249 248 250 251 253 253 252 250 249 248 247 247 247 246 245 245 245 246 246 246 247 248 249 251 252 253 254 256 257 258 259 259 259
100 152 209 212 195 175 157 143 116 98 90 97 122 123 129 173 214 241 248 321 15 120 264 351 321 274 263 268 270 271 276 266 259 258 260 262 261 261 261 261 263 265 267 269 268 267 265 264 264 262 259 255 251 250 250 252 254 255 255 255 253 252 250 249 249 249 249 250 250 250 252 253 252 251 252 252 253 254 254 255 256 257 257 256 255 256
82 196 232 215 162 110 99 117 103 91 87 81 110 127 133 201 243 288 300 341 17 48 271 344 333 278 263 262 265 263 255 258 262 259 261 264 264 265 264 264 267 269 271 271 270 269 268 266 265 262 259 255 254 253 253 254 255 253 254 256 257 255 253 253 253 252 253 254 255 256 258 258 257 256 257 257 258 257 257 257 257 258 258 257 254 255
146 247 240 175 141 112 91 95 98 88 82 88 109 129 166 241 184 245 294 337 13 70 274 313 308 283 282 281 274 270 257 262 269 266 265 266 265 268 268 268 271 273 276 279 279 278 274 270 267 264 261 259 257 256 255 255 254 253 254 256 259 259 259 258 257 257 257 256 257 257 258 258 258 258 258 257 257 256 257 257 257 257 258 257 256 256
195 262 163 130 124 119 114 113 122 120 84 39 139 140 165 212 173 177 303 348 3 27 25 356 320 292 317 331 295 299 290 274 283 282 276 271 267 271 273 271 273 276 283 291 297 300 294 285 278 271 265 260 258 256 257 258 257 257 257 258 261 262 262 262 261 260 258 257 255 255 255 256 255 256 256 255 255 255 256 257 257 258 257 258 258 257
226 267 136 125 90 102 115 140 172 151 143 292 223 175 175 177 163 154 38 51 37 359 351 25 0 289 320 326 278 310 340 313 313 301 289 293 291 284 282 282 282 279 281 293 305 309 304 297 286 275 268 263 260 258 258 259 259 258 258 259 260 262 263 265 265 263 260 257 257 256 256 255 256 258 258 259 261 262 263 264 264 263 261 260 260 260
225 39 113 129 119 108 101 130 196 151 125 215 236 176 153 132 127 128 93 71 78 271 321 49 102 265 311 308 274 312 332 314 318 309 307 324 328 313 296 293 294 278 268 292 318 323 314 302 285 273 273 273 269 264 260 258 258 258 258 259 260 262 264 266 267 265 262 259 258 259 259 260 261 262 264 267 270 271 271 270 269 268 267 265 263 263
163 87 62 87 102 110 115 159 200 141 122 205 225 135 122 117 125 131 98 84 195 242 330 18 107 242 297 275 271 321 331 317 325 318 321 340 354 0 357 1 38 69 73 51 33 10 355 342 316 284 269 269 264 259 257 255 258 258 257 258 259 261 263 264 266 266 264 263 262 262 262 263 264 266 269 272 272 273 272 271 270 270 269 267 266 265
115 144 160 119 94 121 174 207 181 128 106 232 196 121 120 121 121 114 94 88 17 17 320 319 73 201 272 276 300 346 335 308 314 306 313 340 7 34 55 66 67 69 68 62 52 31 19 15 7 355 313 269 251 242 241 242 248 252 255 257 258 260 263 264 266 266 266 265 265 265 265 265 267 269 271 272 272 272 271 271 270 269 268 268 267 266
54 185 200 142 126 176 199 226 161 129 95 169 142 98 79 72 78 76 85 98 44 29 253 268 325 185 268 288 309 359 300 263 280 284 298 339 16 42 54 60 61 61 61 51 41 32 25 23 20 21 26 18 310 247 240 244 248 249 251 254 257 260 263 265 266 267 267 266 266 266 266 267 269 270 270 270 271 270 270 270 270 270 270 270 269 267
332 15 44 105 140 171 143 87 95 116 133 136 113 72 60 34 34 47 49 79 61 321 253 254 281 158 268 285 263 219 226 218 233 301 311 348 30 49 55 58 55 52 51 43 39 38 34 35 34 32 37 39 34 28 6 305 276 269 266 263 264 265 266 268 268 268 268 267 267 267 267 269 270 271 271 270 270 270 270 270 271 272 272 271 271 270
358 52 4 339 147 131 106 70 44 56 107 115 88 82 80 3 10 26 1 38 92 258 261 260 268 163 219 266 261 243 249 225 198 245 294 327 8 45 56 54 49 49 51 50 51 51 48 48 48 47 45 40 35 32 30 25 12 349 327 311 304 299 290 285 280 277 275 272 270 270 270 271 272 272 272 271 270 270 270 270 271 271 270 269 269 269
27 38 305 331 256 168 113 79 49 21 41 79 89 96 88 10 9 359 314 345 213 242 270 270 242 201 229 251 260 261 261 238 226 232 256 310 338 32 48 48 52 60 62 61 61 59 54 52 50 47 41 34 28 21 15 8 1 354 344 336 331 326 318 309 300 293 287 281 278 276 274 273 274 273 272 271 270 269 268 269 269 269 268 268 268 267
336 311 300 67 270 220 154 123 132 223 104 120 129 125 120 119 103 266 266 287 259 258 293 288 263 258 267 265 246 250 257 244 243 248 264 307 322 8 37 53 68 73 71 68 65 61 57 55 51 45 38 29 18 2 349 340 334 330 327 322 319 319 316 311 305 298 291 286 283 280 276 274 273 272 272 270 269 268 267 267 267 267 267 268 268 269
172 277 226 165 200 195 179 168 155 145 143 168 154 129 139 154 155 206 220 210 240 276 307 293 270 197 200 259 228 241 269 272 258 254 261 277 287 359 45 70 81 78 74 71 65 60 57 54 50 45 40 32 21 2 341 327 316 314 315 313 314 317 316 312 306 299 292 287 283 279 276 274 272 271 269 267 265 265 265 264 265 264 265 267 268 271
153 246 254 298 168 161 171 206 134 112 106 239 124 108 155 183 141 135 181 173 172 308 304 255 237 214 205 276 270 263 292 298 267 251 253 234 201 76 71 84 84 76 73 70 65 60 56 52 47 43 38 32 24 15 3 349 334 328 328 329 332 334 332 329 322 312 302 293 285 280 278 276 274 270 265 262 261 261 263 264 264 262 263 264 264 266
143 258 298 352 19 131 143 179 116 117 172 168 127 174 213 173 113 112 207 69 83 227 271 219 244 293 323 298 299 320 359 345 344 49 102 155 153 84 85 92 81 69 67 64 61 57 51 47 44 40 34 28 21 16 10 4 358 358 360 359 357 353 348 343 337 328 317 305 293 285 281 279 276 271 265 261 259 260 261 259 258 258 258 259 260 262
152 203 310 42 137 317 23 100 69 49 112 125 173 206 193 120 90 105 182 6 45 243 275 272 232 284 333 276 314 359 52 22 51 74 90 123 117 84 91 92 74 67 68 66 63 59 52 45 38 30 23 17 12 8 4 1 360 6 14 15 11 4 356 349 344 340 334 325 311 296 286 281 276 271 265 260 258 257 256 253 252 255 255 258 261 262
142 134 305 10 156 296 8 100 84 16 53 122 169 164 120 136 164 92 143 170 128 238 281 304 272 253 205 223 300 38 143 147 139 110 97 108 98 90 93 87 79 80 78 73 68 61 53 41 24 13 6 1 357 353 352 352 349 350 3 9 4 357 352 347 341 339 338 336 329 315 300 289 281 272 264 260 259 256 254 252 253 255 256 258 262 263
141 138 254 308 258 300 20 128 192 218 37 64 103 107 83 132 163 158 151 159 171 199 266 308 320 269 229 216 200 195 185 160 143 133 126 112 98 94 94 90 91 89 80 72 62 48 35 20 4 356 352 346 345 345 345 345 343 341 346 352 351 348 347 344 338 334 331 331 331 327 316 303 290 279 270 264 262 259 257 257 258 258 257 259 261 263
131 149 205 308 339 210 192 216 190 170 148 111 128 160 174 90 107 154 151 116 141 162 191 278 300 270 248 216 200 203 184 161 156 150 149 125 105 104 104 102 99 87 73 55 36 20 8 358 348 345 344 342 343 345 346 348 347 344 339 339 340 339 339 337 332 327 323 320 321 322 320 314 303 291 281 274 268 264 262 262 262 261 261 262 262 265
146 153 168 145 193 201 227 255 195 175 174 168 180 187 178 154 123 149 236 270 115 148 170 187 265 264 251 208 208 213 183 171 161 146 145 131 112 115 114 107 94 69 43 20 10 2 357 355 352 351 352 351 350 348 346 348 348 344 336 332 330 328 327 326 323 318 313 311 309 310 312 313 310 301 291 283 277 272 269 267 266 265 265 263 263 265
120 109 129 154 215 216 248 281 214 177 138 126 188 194 165 153 132 149 204 228 154 168 152 129 256 267 269 282 242 221 173 162 149 136 138 133 121 123 121 106 65 24 7 0 1 2 3 5 4 1 358 355 350 343 339 338 337 334 332 328 324 322 320 319 316 313 309 306 304 303 304 306 310 306 297 289 283 279 276 275 274 273 272 270 269 270
122 105 125 167 305 305 315 336 18 53 94 116 241 166 147 170 143 146 178 173 164 193 152 109 262 264 282 333 358 146 142 145 143 133 129 130 129 124 114 73 8 360 1 4 4 3 2 1 359 357 353 348 342 335 332 333 334 333 333 331 328 325 323 320 316 312 307 304 302 301 301 302 305 305 302 297 289 282 280 280 281 281 282 281 280 279
181 153 128 127 22 357 336 333 327 285 187 184 218 171 160 149 108 100 128 119 198 216 170 161 234 252 285 333 56 109 123 150 158 141 111 104 109 91 31 0 355 358 3 2 356 351 348 346 346 345 343 340 335 331 330 332 334 335 337 338 335 331 330 326 320 316 312 307 303 301 301 300 301 302 304 304 300 293 286 283 284 285 285 286 285 284
176 189 146 149 172 192 205 216 213 198 170 189 203 180 177 155 143 156 135 129 230 225 166 186 233 248 293 319 227 184 183 203 204 171 119 82 44 7 351 348 351 358 360 353 346 342 339 337 335 333 332 332 329 327 328 330 333 335 337 340 338 333 331 327 321 319 319 315 311 309 307 305 303 301 300 300 300 298 293 288 286 286 286 287 287 286
140 210 182 181 200 204 201 201 163 133 147 205 205 179 184 179 173 167 132 176 214 187 171 224 232 241 253 234 234 241 210 214 255 8 55 17 357 344 340 341 347 355 354 345 337 331 328 325 323 323 324 325 323 322 324 328 331 332 334 336 336 334 332 327 323 321 319 317 316 317 318 315 312 307 303 299 296 294 291 289 287 285 285 285 285 284
103 221 203 197 216 219 197 192 177 152 174 198 193 182 187 185 177 173 190 213 192 123 243 235 187 228 244 214 219 246 239 250 327 35 28 357 339 328 329 338 345 348 339 326 319 317 316 316 317 319 321 321 320 319 320 324 328 332 335 337 338 337 334 331 328 326 322 319 318 319 320 320 320 317 312 308 302 297 293 290 287 285 284 282 281 281
130 208 203 180 211 233 195 185 185 175 185 193 186 189 188 182 182 189 209 219 184 182 242 227 159 221 241 193 205 234 218 173 33 29 350 323 313 312 321 334 336 326 311 305 307 310 312 312 314 317 321 323 323 320 320 321 324 328 332 335 338 337 335 332 330 328 325 324 323 323 322 322 321 319 316 314 311 306 300 294 291 288 286 283 282 282
145 206 193 159 191 229 199 180 178 170 172 188 194 194 187 187 193 198 212 221 206 214 250 224 173 240 246 174 214 237 207 149 331 313 298 295 300 307 309 307 305 304 299 297 299 302 306 309 314 319 322 326 326 325 325 325 326 328 329 331 332 332 331 329 327 325 324 324 324 324 323 321 319 317 316 316 315 311 306 301 297 293 289 286 285 284
155 210 121 126 171 239 207 161 149 151 158 181 210 209 197 197 203 211 218 218 202 234 260 256 251 269 245 173 211 244 244 236 243 254 262 270 275 259 243 251 265 276 287 294 295 299 307 313 319 323 326 329 331 330 329 327 326 327 326 326 327 326 326 325 322 320 318 318 319 319 319 318 317 316 316 316 316 313 310 306 302 300 297 293 291 288
99 167 43 93 164 245 219 147 125 84 83 92 253 230 207 200 207 216 216 198 186 218 239 241 253 266 224 166 193 235 229 190 161 179 205 198 195 203 199 206 230 257 280 307 328 330 336 338 336 336 336 336 335 334 332 328 326 326 325 325 325 323 322 321 319 316 313 312 312 311 312 312 312 312 313 313 313 312 311 308 305 304 303 299 296 293
103 120 88 124 172 248 95 130 122 76 61 276 249 224 206 205 208 177 156 208 206 204 210 218 235 250 199 144 163 202 177 161 155 166 188 187 164 144 136 135 104 59 9 352 347 347 349 348 346 345 343 341 338 335 333 330 328 327 326 324 323 322 321 320 319 317 313 311 309 307 307 307 306 307 307 308 308 308 308 307 306 306 305 302 298 294
110 103 99 152 158 189 128 115 109 126 204 235 232 183 185 199 196 172 195 222 211 197 213 236 251 262 219 154 176 189 188 196 166 158 166 165 138 112 97 91 71 46 22 3 355 355 349 343 343 341 339 338 336 333 331 328 325 323 323 323 322 321 321 319 319 319 317 314 313 311 309 306 303 303 303 303 304 303 303 304 304 303 303 302 298 294
134 123 135 102 111 169 126 115 153 215 221 243 344 158 186 192 182 190 221 231 214 205 227 247 256 255 248 228 186 180 192 190 159 148 139 123 106 88 76 68 51 32 12 355 350 351 346 339 337 336 334 334 332 328 325 321 319 318 319 321 321 320 320 319 318 318 318 317 318 317 315 310 306 304 302 301 299 299 299 299 300 300 300 300 298 295
182 161 147 139 160 166 125 168 209 244 296 290 274 229 197 159 159 197 236 242 217 203 213 230 240 247 253 240 149 154 172 162 154 147 124 95 78 66 61 55 40 29 9 350 344 341 337 335 333 332 331 330 328 326 323 320 319 318 319 320 320 319 319 319 317 316 317 316 317 318 317 315 312 308 305 303 300 298 297 297 297 299 299 299 297 295
185 170 161 191 196 188 205 217 239 330 313 269 251 226 188 167 157 183 230 246 222 196 198 217 236 244 239 176 143 153 158 149 151 159 135 74 49 52 53 48 40 28 13 358 344 334 330 328 327 328 328 328 329 327 324 323 322 321 320 321 319 318 318 318 317 316 316 315 315 316 316 316 315 312 310 307 303 300 299 298 299 300 301 300 297 295
175 172 174 202 207 182 207 238 249 251 255 251 236 210 198 193 178 166 202 248 249 203 201 208 227 234 205 156 151 157 151 140 176 194 172 69 30 40 44 41 36 21 12 0 348 343 338 331 330 332 331 331 333 330 325 324 323 321 322 321 320 320 320 319 318 318 316 315 315 316 316 316 315 314 312 309 306 302 299 298 298 299 300 301 299 297
124 95 146 190 204 182 199 225 226 224 247 251 233 225 195 187 171 141 181 249 260 202 198 199 212 228 215 174 161 153 146 178 238 190 159 76 26 35 25 16 8 4 2 354 348 344 339 336 335 336 335 333 332 330 326 324 323 322 322 322 321 322 322 321 320 319 318 317 316 316 316 316 315 314 313 311 309 304 300 298 297 297 298 299 299 298
152 112 159 194 211 211 210 222 229 233 255 244 239 261 192 169 150 128 199 254 228 175 186 193 202 211 197 167 157 150 152 200 197 158 133 38 1 7 355 350 349 349 347 344 343 338 334 334 333 331 332 331 328 327 325 322 322 322 322 322 322 324 323 321 320 320 319 317 317 316 315 315 314 313 312 312 311 308 304 300 297 297 297 297 297 297
170 168 195 200 208 218 220 232 259 258 251 237 224 195 163 153 147 167 223 230 170 164 175 182 186 185 171 154 148 146 140 135 139 149 183 264 292 327 341 343 342 341 338 338 338 335 331 331 330 329 330 329 326 325 324 321 320 321 320 320 322 322 320 319 320 320 318 317 316 315 314 312 312 312 312 312 311 310 307 304 300 297 296 297 297 295
178 185 196 196 204 215 223 234 254 264 239 194 160 149 150 151 190 219 200 158 160 162 158 162 167 164 159 150 136 130 127 120 133 173 220 290 318 328 336 338 337 336 335 335 335 333 329 328 329 329 329 330 328 326 324 322 320 320 320 320 321 320 319 318 319 318 317 317 316 314 313 311 310 310 310 311 311 310 309 306 302 299 297 297 297 296
180 179 184 194 194 197 223 220 216 257 224 158 145 145 172 181 201 169 147 148 161 160 156 160 162 153 147 144 133 130 133 143 183 248 308 322 330 334 333 333 333 332 332 332 331 330 327 325 326 327 327 329 329 327 326 324 321 321 321 321 321 320 318 318 318 317 316 316 315 314 313 310 309 309 309 310 310 310 309 308 305 301 298 297 297 296
190 185 185 202 193 179 210 217 206 251 181 162 164 189 199 196 193 154 152 161 165 162 157 152 151 151 150 145 143 157 189 260 290 314 324 325 328 331 330 329 328 327 326 327 327 326 324 322 323 324 324 326 326 325 325 323 321 321 322 323 322 320 319 319 318 317 317 317 315 314 312 310 309 309 310 310 310 310 310 309 306 303 300 298 297 296
217 202 171 181 194 174 191 219 206 137 165 177 189 223 196 198 209 197 183 177 166 161 156 147 147 156 159 160 170 194 251 297 308 313 316 318 320 323 325 325 324 323 323 323 323 323 321 320 321 321 322 323 324 324 323 322 321 320 321 323 322 320 319 319 318 318 318 318 317 315 313 310 309 309 311 312 311 311 310 309 307 304 301 298 296 295
235 195 140 135 225 213 209 213 182 137 151 176 191 197 179 179 182 182 183 174 162 157 156 156 162 167 170 181 197 224 281 296 306 310 311 314 316 317 317 317 317 318 318 317 318 318 316 317 317 317 318 319 321 322 321 320 320 320 320 321 321 319 319 318 318 318 318 318 318 316 314 311 309 309 311 312 312 312 311 309 306 303 300 298 296 295
275 179 161 169 204 201 227 230 169 142 148 157 159 160 155 146 142 149 158 160 160 162 162 161 168 175 181 198 222 252 284 295 304 307 308 311 312 312 312 311 312 314 314 314 316 316 315 315 315 315 315 316 318 320 319 317 318 319 319 319 319 318 317 316 316 317 317 317 318 317 314 312 309 309 310 311 312 312 310 308 305 301 299 297 296 294
208 173 176 210 200 188 228 241 128 112 131 150 146 148 152 149 146 146 147 151 157 163 166 167 174 182 191 214 243 265 288 297 299 301 304 307 310 311 312 312 312 313 314 314 314 314 313 314 314 314 314 313 315 316 316 315 316 316 317 317 317 315 314 314 314 315 315 316 316 315 314 312 309 309 311 311 311 311 309 307 303 300 298 296 294 291
141 163 180 183 176 172 313 210 134 89 63 161 153 148 154 160 158 152 150 155 160 164 172 177 183 195 212 233 260 279 290 294 297 302 306 308 310 311 311 311 311 311 311 311 311 311 311 312 312 311 311 311 312 312 312 312 312 313 314 314 313 312 311 311 311 312 312 313 314 314 313 311 310 310 311 310 310 309 307 305 302 299 297 295 290 286
131 174 181 123 153 203 230 184 167 139 90 191 172 157 157 165 166 162 158 161 167 172 179 187 194 213 237 257 278 288 292 296 299 301 302 304 306 306 306 307 307 306 307 309 309 308 309 310 310 310 309 309 310 310 309 309 309 310 311 311 309 307 307 307 307 308 309 310 310 311 310 309 309 310 310 310 309 307 305 303 300 298 296 293 287 281
181 186 175 153 174 212 214 186 178 168 168 180 175 167 167 171 174 175 171 169 175 181 188 203 217 236 258 273 283 288 292 296 298 298 299 301 302 302 304 304 305 305 306 307 308 308 308 309 309 308 308 308 309 309 309 309 310 311 311 309 306 303 302 302 302 302 304 305 306 306 307 307 307 308 309 309 308 306 303 301 298 296 293 291 287 280
Height
1522 1525 1528 1528 1528 1528 1529 1531 1533 1535 1537 1538 1541 1542 1543 1543 1542 1544 1544 1544 1544 1542 1543 1545 1544 1540 1536 1533 1530 1527 1528 1529 1528 1526 1525 1524 1524 1524 1524 1524 1523 1523 1522 1524 1526 1527 1529 1529 1530 1531 1532 1532 1533 1533 1534 1534 1535 1536 1537 1537 1538 1540 1542 1542 1543 1544 1545 1545 1546 1547 1547 1547 1548 1549 1550 1551 1552 1553 1554 1555 1556 1556 1557 1558 1558 1559
1523 1527 1527 1525 1526 1527 1530 1534 1534 1536 1539 1540 1540 1541 1544 1546 1543 1543 1544 1544 1545 1543 1543 1546 1544 1539 1535 1531 1527 1526 1527 1526 1524 1524 1522 1521 1521 1520 1520 1520 1520 1520 1520 1521 1523 1524 1526 1526 1527 1528 1528 1529 1529 1530 1531 1532 1533 1534 1534 1535 1536 1538 1539 1539 1540 1541 1542 1542 1543 1544 1545 1545 1547 1548 1548 1549 1550 1551 1552 1553 1554 1554 1555 1556 1557 1557
1527 1527 1524 1525 1529 1530 1533 1535 1534 1535 1538 1540 1542 1541 1543 1547 1545 1544 1545 1545 1546 1543 1542 1545 1542 1534 1531 1530 1524 1523 1523 1521 1520 1521 1520 1519 1518 1517 1517 1516 1517 1517 1517 1518 1520 1521 1522 1523 1524 1524 1525 1526 1527 1528 1529 1529 1531 1532 1532 1533 1534 1535 1536 1537 1538 1539 1539 1540 1541 1542 1543 1544 1545 1545 1546 1547 1548 1549 1550 1550 1551 1552 1553 1554 1555 1555
1530 1526 1523 1527 1530 1529 1533 1535 1534 1535 1538 1540 1542 1540 1543 1548 1546 1542 1543 1545 1547 1546 1545 1545 1541 1532 1527 1526 1520 1519 1520 1518 1518 1518 1517 1517 1515 1514 1514 1514 1514 1514 1514 1515 1516 1518 1519 1520 1520 1521 1522 1523 1524 1525 1526 1526 1528 1529 1530 1531 1532 1533 1534 1535 1535 1536 1537 1538 1540 1540 1541 1542 1542 1543 1544 1545 1545 1546 1546 1547 1548 1548 1549 1551 1552 1553
1526 1525 1525 1527 1529 1528 1531 1535 1534 1534 1539 1542 1541 1540 1541 1544 1543 1543 1545 1545 1546 1548 1548 1544 1538 1529 1524 1523 1519 1518 1519 1517 1517 1516 1514 1514 1513 1512 1512 1512 1513 1512 1512 1513 1513 1515 1516 1517 1517 1518 1519 1520 1521 1522 1523 1524 1525 1526 1528 1529 1531 1531 1532 1533 1533 1534 1535 1536 1537 1538 1538 1539 1539 1539 1540 1540 1540 1541 1542 1543 1544 1545 1546 1548 1548 1550
1524 1526 1526 1526 1528 1529 1529 1533 1534 1533 1537 1541 1540 1539 1538 1538 1540 1543 1545 1544 1545 1547 1550 1548 1542 1531 1524 1522 1519 1518 1518 1516 1515 1515 1512 1512 1512 1511 1510 1510 1510 1511 1512 1512 1512 1513 1514 1515 1515 1516 1517 1518 1519 1520 1521 1522 1523 1524 1526 1528 1529 1529 1530 1531 1532 1533 1533 1534 1534 1535 1535 1535 1536 1536 1535 1536 1537 1538 1540 1541 1542 1543 1544 1545 1546 1546
1525 1526 1526 1526 1527 1528 1530 1531 1533 1535 1538 1540 1539 1540 1540 1538 1539 1542 1542 1543 1547 1549 1552 1554 1549 1541 1530 1521 1520 1522 1520 1516 1515 1513 1511 1511 1510 1509 1508 1507 1508 1509 1510 1512 1512 1513 1513 1513 1514 1514 1515 1516 1516 1518 1519 1520 1522 1523 1524 1526 1526 1527 1528 1529 1530 1531 1531 1532 1532 1532 1533 1533 1533 1533 1533 1534 1536 1537 1538 1539 1539 1540 1541 1542 1543 1543
1525 1526 1527 1526 1527 1529 1530 1530 1533 1534 1536 1539 1540 1541 1541 1538 1539 1543 1542 1545 1550 1551 1553 1554 1552 1551 1540 1525 1524 1527 1522 1515 1514 1514 1512 1511 1510 1508 1507 1506 1507 1508 1509 1511 1512 1512 1513 1512 1512 1513 1513 1514 1514 1515 1517 1518 1520 1521 1522 1523 1524 1525 1526 1527 1528 1529 1529 1529 1530 1530 1531 1531 1531 1531 1532 1533 1534 1534 1535 1535 1536 1537 1538 1539 1540 1540
1524 1525 1525 1525 1527 1529 1529 1530 1532 1533 1533 1538 1543 1543 1542 1541 1543 1545 1545 1548 1555 1554 1551 1552 1554 1554 1543 1528 1528 1529 1522 1517 1515 1515 1515 1512 1510 1508 1507 1507 1507 1508 1509 1510 1512 1512 1512 1512 1512 1512 1512 1512 1513 1514 1515 1516 1517 1519 1520 1521 1522 1523 1524 1525 1526 1526 1527 1527 1528 1528 1529 1529 1529 1529 1530 1531 1531 1531 1532 1532 1532 1533 1534 1535 1536 1536
1525 1525 1525 1525 1525 1527 1530 1533 1534 1532 1532 1538 1543 1544 1544 1547 1547 1548 1548 1549 1554 1555 1551 1552 1555 1553 1541 1527 1526 1527 1521 1519 1517 1517 1516 1513 1511 1510 1508 1509 1508 1509 1510 1511 1512 1512 1512 1512 1511 1512 1512 1512 1513 1514 1515 1516 1517 1517 1518 1519 1520 1521 1523 1523 1524 1524 1525 1526 1526 1526 1526 1526 1526 1527 1528 1528 1528 1528 1528 1528 1529 1529 1530 1531 1531 1532
1526 1525 1526 1526 1525 1527 1530 1534 1536 1534 1534 1537 1540 1541 1543 1547 1548 1550 1554 1552 1554 1556 1553 1557 1560 1557 1546 1528 1522 1523 1520 1519 1518 1517 1516 1513 1512 1512 1510 1511 1510 1511 1511 1511 1512 1512 1512 1512 1512 1512 1512 1513 1513 1514 1515 1516 1517 1517 1517 1518 1519 1520 1521 1521 1522 1522 1523 1524 1524 1524 1524 1524 1524 1524 1525 1525 1524 1525 1525 1525 1526 1526 1527 1527 1527 1528
1526 1526 1527 1527 1527 1528 1529 1532 1536 1536 1537 1537 1537 1539 1543 1549 1551 1553 1557 1556 1557 1556 1556 1564 1567 1561 1551 1532 1520 1520 1520 1520 1520 1517 1516 1514 1513 1513 1512 1512 1512 1512 1512 1512 1512 1512 1512 1512 1512 1513 1513 1514 1514 1514 1515 1516 1516 1517 1517 1518 1519 1519 1520 1520 1521 1521 1521 1521 1521 1521 1521 1521 1521 1522 1522 1522 1521 1522 1523 1523 1523 1524 1524 1524 1524 1524
1527 1526 1528 1528 1527 1527 1526 1531 1538 1539 1538 1537 1537 1541 1547 1555 1559 1558 1561 1564 1562 1558 1559 1567 1566 1558 1550 1531 1519 1518 1516 1519 1520 1517 1516 1516 1515 1514 1514 1514 1514 1513 1513 1513 1513 1513 1513 1513 1513 1514 1514 1515 1515 1515 1516 1516 1517 1517 1517 1518 1518 1519 1519 1519 1519 1519 1519 1519 1519 1519 1519 1519 1519 1519 1519 1519 1519 1520 1520 1520 1521 1521 1521 1521 1521 1521
1529 1529 1528 1527 1527 1526 1524 1528 1536 1539 1538 1536 1536 1540 1545 1556 1562 1561 1567 1572 1564 1557 1562 1569 1563 1552 1542 1528 1519 1517 1515 1517 1518 1515 1516 1516 1516 1515 1515 1516 1515 1515 1515 1514 1515 1514 1515 1515 1515 1515 1515 1516 1516 1516 1517 1517 1517 1518 1518 1518 1518 1518 1518 1518 1518 1518 1518 1518 1518 1517 1517 1517 1517 1517 1517 1517 1517 1517 1517 1517 1518 1518 1518 1518 1518 1519
1529 1529 1525 1524 1524 1524 1524 1525 1527 1531 1535 1538 1539 1539 1540 1545 1550 1552 1557 1557 1553 1555 1563 1567 1556 1538 1528 1521 1517 1516 1515 1516 1515 1515 1516 1515 1516 1516 1516 1517 1516 1516 1516 1516 1516 1516 1516 1516 1516 1516 1516 1516 1517 1517 1517 1518 1517 1517 1517 1517 1517 1517 1517 1517 1517 1516 1516 1516 1516 1515 1515 1515 1515 1515 1514 1514 1514 1514 1515 1515 1515 1515 1515 1515 1515 1516
1527 1524 1520 1522 1522 1521 1523 1524 1524 1528 1535 1542 1544 1541 1540 1537 1539 1552 1562 1560 1559 1560 1559 1558 1547 1532 1524 1517 1515 1516 1516 1515 1515 1514 1515 1514 1515 1516 1516 1517 1517 1517 1518 1518 1518 1518 1517 1518 1518 1517 1517 1517 1517 1517 1517 1517 1517 1517 1517 1516 1516 1516 1516 1515 1515 1515 1514 1514 1514 1513 1513 1513 1513 1513 1512 1512 1512 1512 1512 1512 1512 1512 1513 1513 1513 1513
1525 1524 1523 1524 1523 1523 1524 1524 1525 1526 1531 1540 1543 1539 1541 1540 1538 1550 1566 1572 1568 1558 1550 1550 1541 1530 1527 1518 1511 1515 1515 1514 1515 1513 1513 1514 1515 1516 1516 1517 1518 1518 1518 1518 1518 1518 1518 1518 1519 1519 1519 1518 1518 1518 1518 1517 1517 1517 1516 1516 1515 1515 1514 1514 1513 1513 1513 1512 1512 1511 1511 1511 1511 1511 1511 1510 1510 1510 1510 1510 1510 1510 1510 1510 1510 1510
1517 1522 1525 1525 1524 1525 1525 1524 1527 1526 1528 1536 1538 1536 1539 1543 1542 1543 1551 1563 1568 1559 1548 1548 1541 1532 1531 1523 1513 1512 1513 1513 1515 1514 1514 1515 1515 1516 1517 1517 1518 1518 1518 1519 1519 1519 1519 1519 1519 1519 1519 1519 1519 1518 1518 1518 1517 1517 1516 1515 1515 1514 1514 1513 1512 1512 1511 1511 1510 1510 1510 1510 1510 1509 1509 1509 1509 1508 1508 1508 1508 1508 1508 1508 1508 1508
1509 1517 1526 1529 1527 1526 1526 1526 1528 1530 1529 1530 1531 1532 1535 1538 1542 1545 1547 1551 1559 1560 1549 1546 1548 1540 1532 1524 1513 1509 1511 1511 1514 1515 1514 1515 1516 1516 1517 1517 1518 1518 1519 1519 1519 1519 1519 1519 1519 1519 1518 1518 1518 1518 1518 1517 1517 1517 1516 1515 1515 1514 1513 1513 1512 1511 1510 1509 1509 1508 1508 1508 1508 1508 1508 1507 1507 1507 1506 1506 1506 1505 1505 1505 1505 1505
1507 1512 1522 1530 1529 1528 1528 1527 1527 1529 1532 1531 1531 1534 1535 1535 1538 1542 1546 1545 1547 1554 1551 1543 1540 1531 1524 1521 1511 1506 1512 1513 1513 1516 1516 1515 1516 1516 1517 1517 1518 1519 1519 1519 1519 1519 1519 1519 1519 1518 1518 1518 1517 1517 1517 1516 1516 1516 1515 1515 1514 1514 1513 1512 1511 1509 1508 1508 1507 1507 1506 1506 1506 1506 1506 1506 1505 1505 1504 1504 1503 1503 1503 1502 1502 1502
1506 1508 1516 1529 1532 1529 1526 1523 1522 1523 1527 1530 1531 1534 1535 1537 1540 1540 1545 1547 1542 1545 1550 1545 1535 1523 1517 1516 1508 1505 1511 1512 1512 1514 1516 1516 1516 1516 1517 1517 1518 1519 1519 1519 1519 1519 1519 1519 1519 1518 1518 1518 1517 1517 1516 1515 1514 1514 1513 1512 1512 1512 1511 1510 1509 1508 1507 1506 1505 1505 1504 1504 1504 1503 1503 1504 1503 1503 1502 1502 1501 1501 1500 1500 1500 1500
1505 1508 1516 1528 1531 1525 1520 1520 1521 1520 1521 1521 1523 1526 1527 1531 1537 1539 1543 1549 1547 1543 1545 1546 1537 1520 1511 1510 1508 1506 1509 1510 1511 1512 1514 1516 1515 1516 1517 1517 1518 1519 1519 1520 1520 1520 1520 1519 1518 1517 1517 1516 1516 1515 1514 1513 1512 1512 1511 1510 1509 1509 1508 1508 1507 1506 1505 1505 1504 1503 1502 1501 1501 1501 1500 1500 1500 1500 1500 1499 1499 1498 1497 1497 1497 1497
1501 1509 1516 1524 1525 1522 1521 1522 1523 1522 1521 1521 1521 1522 1524 1525 1527 1530 1535 1543 1547 1545 1546 1550 1541 1519 1508 1510 1510 1508 1509 1510 1511 1513 1513 1514 1515 1515 1517 1517 1518 1519 1519 1519 1519 1518 1519 1518 1517 1517 1515 1515 1514 1513 1513 1512 1511 1510 1509 1508 1507 1507 1506 1506 1505 1504 1503 1502 1502 1501 1500 1499 1498 1498 1497 1497 1497 1497 1497 1496 1496 1495 1495 1494 1494 1493
1499 1504 1511 1519 1523 1522 1521 1522 1523 1523 1522 1523 1523 1523 1525 1525 1524 1525 1530 1535 1538 1539 1542 1550 1542 1518 1508 1512 1511 1509 1510 1510 1512 1513 1513 1514 1514 1515 1516 1516 1516 1517 1516 1517 1516 1516 1516 1515 1515 1514 1514 1514 1513 1512 1511 1510 1509 1508 1507 1507 1506 1505 1505 1504 1503 1502 1501 1500 1499 1499 1498 1497 1496 1495 1494 1493 1493 1492 1493 1493 1492 1492 1491 1491 1490 1490
1496 1501 1507 1517 1524 1525 1525 1524 1522 1522 1522 1521 1521 1523 1522 1523 1527 1531 1533 1535 1535 1531 1531 1537 1533 1516 1510 1512 1511 1510 1511 1511 1512 1513 1512 1513 1513 1513 1514 1514 1514 1514 1513 1512 1511 1510 1509 1508 1509 1510 1511 1511 1510 1509 1508 1507 1506 1506 1505 1505 1504 1503 1503 1502 1501 1500 1499 1498 1497 1497 1496 1495 1494 1493 1492 1491 1490 1489 1489 1488 1488 1487 1487 1487 1486 1485
1492 1497 1500 1508 1517 1519 1518 1515 1511 1514 1521 1521 1519 1520 1520 1522 1525 1526 1529 1535 1532 1528 1529 1527 1520 1514 1512 1512 1511 1511 1512 1511 1512 1512 1512 1512 1512 1511 1510 1510 1509 1509 1508 1506 1505 1505 1506 1507 1508 1509 1509 1509 1508 1507 1506 1506 1505 1504 1504 1504 1503 1502 1501 1500 1499 1498 1497 1496 1495 1495 1494 1493 1492 1491 1489 1488 1487 1486 1485 1484 1484 1483 1483 1482 1481 1480
1491 1495 1495 1496 1499 1500 1499 1499 1501 1506 1514 1516 1514 1517 1519 1521 1521 1521 1527 1529 1524 1525 1529 1520 1513 1514 1513 1512 1511 1510 1510 1510 1510 1510 1510 1509 1508 1507 1507 1507 1507 1507 1507 1507 1508 1508 1510 1510 1510 1510 1509 1508 1507 1506 1506 1505 1504 1503 1503 1502 1502 1501 1499 1498 1497 1496 1495 1494 1493 1492 1492 1491 1490 1488 1487 1485 1484 1483 1482 1481 1480 1479 1478 1477 1476 1475
1489 1492 1493 1492 1493 1494 1494 1496 1500 1501 1503 1506 1509 1513 1516 1518 1520 1521 1521 1517 1515 1524 1523 1513 1514 1515 1509 1509 1510 1506 1506 1508 1508 1508 1508 1508 1507 1507 1508 1509 1510 1511 1511 1511 1512 1512 1511 1511 1510 1509 1508 1507 1506 1505 1504 1504 1503 1502 1502 1501 1500 1499 1498 1496 1495 1494 1493 1492 1491 1490 1489 1488 1487 1486 1484 1482 1481 1480 1478 1477 1476 1475 1474 1472 1471 1470
1486 1488 1491 1493 1493 1495 1497 1499 1500 1499 1500 1502 1505 1509 1512 1516 1518 1517 1514 1509 1511 1517 1510 1505 1512 1510 1502 1506 1507 1503 1505 1507 1507 1508 1509 1509 1509 1509 1510 1512 1512 1512 1512 1512 1512 1512 1511 1510 1509 1508 1507 1506 1505 1503 1502 1501 1500 1500 1499 1498 1498 1497 1495 1494 1493 1491 1490 1489 1488 1487 1486 1485 1483 1482 1480 1478 1477 1476 1475 1473 1472 1470 1469 1467 1466 1465
1485 1486 1490 1492 1493 1494 1498 1501 1502 1500 1501 1503 1505 1507 1509 1512 1512 1510 1507 1504 1507 1509 1505 1508 1515 1507 1501 1506 1505 1501 1505 1507 1508 1509 1508 1508 1510 1510 1511 1511 1511 1512 1512 1511 1511 1510 1510 1509 1508 1507 1506 1504 1503 1502 1500 1499 1498 1497 1496 1495 1495 1494 1493 1491 1489 1488 1487 1486 1485 1484 1482 1481 1479 1477 1476 1474 1473 1471 1470 1468 1467 1465 1464 1463 1462 1460
1485 1488 1492 1492 1492 1495 1499 1502 1503 1502 1500 1501 1504 1507 1508 1509 1510 1508 1505 1505 1509 1510 1507 1512 1516 1506 1500 1504 1503 1502 1505 1507 1508 1509 1508 1508 1509 1509 1509 1510 1510 1510 1510 1509 1510 1509 1509 1508 1507 1506 1505 1503 1502 1501 1499 1498 1497 1496 1494 1493 1492 1491 1490 1488 1487 1485 1484 1483 1482 1480 1478 1476 1474 1473 1471 1470 1469 1467 1465 1463 1461 1460 1459 1458 1457 1455
1485 1490 1493 1492 1493 1495 1497 1502 1505 1503 1503 1504 1504 1504 1505 1507 1507 1506 1506 1506 1506 1506 1507 1512 1511 1501 1496 1500 1502 1502 1503 1505 1507 1507 1507 1508 1507 1507 1508 1508 1508 1509 1508 1508 1508 1508 1507 1506 1505 1505 1503 1502 1501 1500 1498 1497 1496 1495 1494 1493 1491 1490 1489 1487 1485 1483 1482 1481 1479 1477 1475 1473 1471 1469 1468 1467 1465 1463 1461 1459 1457 1456 1454 1453 1451 1450
1487 1489 1492 1493 1494 1496 1499 1503 1504 1505 1508 1506 1497 1492 1496 1501 1501 1502 1504 1503 1500 1501 1504 1506 1500 1492 1494 1499 1500 1501 1503 1503 1505 1505 1505 1506 1506 1506 1507 1507 1507 1508 1508 1508 1507 1506 1505 1504 1504 1503 1502 1501 1500 1499 1498 1496 1495 1494 1493 1492 1491 1490 1488 1487 1485 1483 1481 1479 1478 1476 1474 1471 1469 1466 1464 1463 1462 1460 1458 1456 1455 1453 1451 1449 1447 1445
1489 1490 1493 1495 1496 1498 1502 1503 1505 1508 1505 1494 1482 1482 1488 1492 1496 1499 1499 1496 1496 1498 1498 1496 1491 1489 1494 1497 1498 1500 1502 1501 1502 1504 1504 1504 1505 1505 1506 1506 1506 1506 1507 1507 1506 1505 1504 1502 1502 1501 1500 1500 1499 1497 1496 1495 1493 1493 1492 1491 1490 1488 1487 1485 1483 1482 1480 1477 1476 1474 1472 1469 1466 1464 1462 1460 1458 1456 1454 1452 1451 1449 1448 1446 1443 1441
1488 1492 1496 1498 1499 1502 1504 1505 1506 1504 1493 1483 1479 1481 1483 1485 1489 1494 1492 1490 1493 1496 1495 1493 1491 1488 1490 1493 1496 1498 1499 1500 1501 1502 1503 1504 1504 1504 1505 1505 1505 1505 1505 1505 1504 1503 1503 1501 1501 1500 1499 1499 1497 1496 1495 1494 1492 1491 1490 1489 1487 1486 1484 1483 1481 1479 1477 1474 1473 1471 1468 1466 1463 1461 1459 1457 1455 1453 1451 1449 1447 1445 1443 1441 1439 1437
1485 1491 1496 1499 1501 1503 1504 1504 1500 1491 1483 1482 1482 1481 1481 1484 1487 1490 1490 1489 1489 1491 1491 1490 1487 1485 1488 1492 1495 1496 1497 1499 1500 1501 1502 1503 1503 1503 1503 1503 1503 1504 1503 1503 1502 1501 1501 1500 1499 1499 1498 1497 1496 1495 1494 1492 1491 1489 1488 1487 1485 1484 1482 1480 1478 1476 1474 1472 1469 1467 1465 1462 1460 1457 1455 1453 1451 1448 1447 1445 1442 1440 1438 1436 1434 1432
1481 1485 1491 1496 1497 1496 1498 1497 1492 1488 1486 1482 1477 1476 1477 1479 1481 1484 1486 1483 1480 1483 1485 1485 1483 1484 1487 1491 1492 1494 1496 1497 1499 1500 1500 1501 1502 1502 1502 1502 1502 1502 1502 1501 1501 1500 1500 1499 1498 1498 1497 1496 1495 1494 1492 1491 1489 1487 1486 1485 1484 1482 1480 1478 1476 1474 1471 1469 1467 1464 1462 1459 1456 1453 1451 1448 1446 1444 1442 1440 1437 1436 1434 1431 1428 1427
1480 1481 1484 1489 1490 1490 1493 1494 1493 1495 1489 1476 1470 1470 1471 1472 1475 1478 1481 1479 1475 1476 1478 1479 1481 1482 1485 1489 1491 1492 1493 1495 1497 1498 1498 1500 1501 1501 1501 1501 1501 1501 1500 1500 1499 1499 1498 1498 1497 1496 1495 1494 1493 1492 1490 1488 1487 1485 1484 1483 1481 1479 1477 1475 1473 1471 1468 1466 1464 1462 1459 1456 1453 1450 1448 1445 1443 1440 1438 1435 1433 1431 1429 1427 1424 1422
1482 1482 1483 1486 1487 1487 1491 1491 1489 1486 1478 1468 1466 1468 1469 1471 1473 1477 1484 1481 1472 1471 1475 1477 1479 1480 1481 1485 1487 1488 1491 1493 1493 1495 1497 1498 1499 1499 1499 1499 1499 1499 1499 1498 1497 1497 1496 1496 1495 1494 1493 1492 1491 1489 1487 1486 1484 1483 1481 1480 1478 1476 1474 1472 1470 1468 1465 1463 1461 1459 1456 1453 1451 1448 1445 1442 1440 1437 1434 1432 1429 1427 1425 1423 1420 1418
1483 1484 1485 1488 1487 1486 1487 1486 1481 1476 1470 1467 1467 1468 1469 1470 1471 1479 1487 1479 1467 1468 1472 1473 1475 1477 1478 1482 1484 1486 1489 1489 1490 1493 1495 1495 1496 1497 1497 1497 1496 1496 1496 1495 1495 1494 1493 1493 1492 1491 1491 1489 1488 1487 1485 1483 1482 1480 1479 1477 1475 1474 1471 1469 1467 1465 1462 1460 1458 1455 1453 1450 1447 1444 1442 1439 1436 1433 1431 1428 1425 1423 1420 1418 1416 1414
1483 1483 1483 1484 1485 1484 1484 1483 1479 1474 1469 1467 1467 1467 1469 1471 1474 1478 1478 1470 1465 1469 1471 1470 1473 1476 1477 1480 1482 1484 1486 1487 1489 1491 1492 1492 1494 1494 1494 1494 1494 1494 1493 1493 1492 1491 1490 1490 1489 1488 1488 1487 1485 1484 1482 1480 1479 1477 1476 1474 1473 1470 1468 1466 1464 1462 1460 1457 1455 1452 1450 1447 1444 1441 1438 1435 1432 1429 1427 1424 1422 1419 1416 1414 1412 1409
1478 1479 1480 1480 1481 1481 1481 1481 1480 1474 1465 1463 1467 1468 1469 1473 1475 1472 1467 1465 1467 1469 1470 1472 1474 1475 1477 1480 1481 1483 1485 1487 1488 1489 1490 1491 1491 1491 1491 1492 1491 1491 1491 1490 1489 1488 1487 1486 1486 1485 1485 1484 1482 1481 1479 1477 1475 1473 1472 1471 1469 1467 1464 1462 1460 1458 1456 1454 1451 1449 1446 1444 1441 1438 1435 1432 1429 1425 1423 1421 1418 1415 1412 1410 1407 1405
1467 1471 1475 1475 1475 1477 1479 1480 1478 1470 1460 1460 1465 1468 1468 1468 1466 1464 1464 1467 1468 1468 1469 1472 1473 1475 1477 1479 1480 1482 1484 1485 1486 1487 1488 1488 1488 1488 1488 1487 1487 1487 1487 1486 1486 1485 1484 1483 1482 1482 1481 1481 1479 1477 1475 1473 1471 1470 1469 1467 1465 1463 1461 1458 1456 1454 1452 1449 1447 1445 1442 1440 1437 1435 1431 1428 1425 1421 1418 1416 1414 1411 1408 1406 1403 1401
1461 1464 1467 1466 1466 1471 1474 1471 1465 1459 1456 1458 1460 1461 1462 1462 1461 1461 1464 1467 1468 1469 1470 1471 1473 1475 1477 1477 1479 1481 1481 1482 1484 1484 1484 1485 1485 1485 1485 1484 1484 1483 1483 1483 1483 1481 1480 1479 1478 1478 1478 1478 1477 1475 1473 1470 1467 1465 1465 1463 1461 1459 1456 1454 1452 1449 1447 1445 1442 1440 1438 1435 1433 1431 1428 1425 1421 1418 1415 1412 1409 1407 1404 1402 1399 1397
1455 1454 1456 1456 1456 1460 1461 1458 1455 1454 1455 1457 1457 1457 1459 1460 1461 1462 1462 1463 1466 1469 1470 1471 1473 1475 1476 1477 1478 1479 1479 1480 1481 1481 1481 1482 1481 1482 1482 1481 1481 1480 1480 1480 1479 1478 1477 1476 1474 1473 1473 1474 1473 1472 1470 1468 1464 1462 1460 1459 1457 1455 1452 1450 1447 1444 1442 1440 1437 1435 1433 1430 1428 1426 1423 1420 1417 1414 1411 1408 1405 1403 1401 1398 1396 1394
1450 1450 1450 1452 1453 1455 1455 1454 1455 1455 1455 1456 1457 1458 1459 1459 1460 1462 1462 1463 1465 1468 1469 1471 1472 1473 1475 1476 1477 1478 1478 1479 1478 1479 1479 1479 1479 1479 1479 1478 1478 1478 1477 1476 1476 1475 1473 1472 1471 1469 1468 1468 1469 1468 1467 1465 1462 1459 1457 1455 1453 1450 1448 1445 1442 1440 1438 1435 1433 1431 1428 1425 1423 1421 1418 1415 1413 1409 1407 1404 1401 1399 1397 1395 1393 1391
1449 1450 1450 1451 1452 1454 1454 1453 1454 1455 1456 1456 1457 1458 1458 1459 1460 1461 1462 1463 1465 1467 1469 1470 1472 1473 1474 1475 1475 1476 1477 1476 1477 1477 1477 1477 1477 1477 1476 1476 1476 1475 1474 1474 1472 1471 1470 1468 1467 1465 1463 1463 1463 1463 1462 1461 1459 1456 1454 1451 1449 1446 1444 1441 1439 1436 1434 1431 1429 1427 1424 1421 1419 1416 1414 1411 1408 1405 1403 1400 1398 1396 1394 1393 1391 1389
1446 1448 1451 1451 1451 1452 1453 1454 1455 1456 1456 1456 1457 1458 1458 1459 1460 1461 1463 1464 1465 1467 1469 1470 1471 1472 1473 1473 1474 1474 1475 1475 1475 1475 1475 1475 1475 1474 1474 1473 1472 1472 1471 1471 1469 1468 1466 1464 1463 1461 1459 1458 1458 1457 1456 1455 1454 1452 1450 1447 1445 1441 1438 1437 1435 1432 1430 1427 1425 1422 1420 1418 1415 1412 1410 1407 1404 1401 1399 1396 1394 1392 1391 1390 1389 1387
1444 1446 1448 1449 1450 1452 1453 1454 1456 1457 1457 1457 1457 1457 1458 1459 1459 1461 1463 1464 1465 1466 1468 1469 1470 1471 1471 1472 1472 1473 1473 1474 1473 1473 1473 1473 1472 1471 1471 1470 1469 1468 1467 1466 1466 1464 1462 1461 1459 1457 1455 1454 1453 1452 1451 1449 1449 1447 1445 1443 1440 1436 1433 1431 1429 1427 1425 1423 1421 1418 1416 1413 1411 1408 1405 1403 1400 1397 1395 1393 1391 1389 1387 1388 1387 1385
1442 1444 1446 1448 1450 1450 1449 1449 1451 1453 1455 1456 1456 1456 1458 1459 1460 1461 1462 1463 1464 1465 1466 1467 1468 1469 1470 1470 1470 1471 1471 1471 1471 1471 1471 1470 1470 1469 1468 1467 1466 1465 1463 1462 1462 1460 1459 1457 1455 1453 1451 1450 1449 1447 1446 1444 1443 1442 1441 1439 1435 1431 1428 1426 1424 1422 1420 1419 1417 1414 1412 1409 1407 1405 1402 1399 1397 1394 1392 1390 1388 1386 1384 1384 1384 1384
1438 1439 1441 1443 1445 1445 1444 1445 1447 1449 1450 1452 1454 1456 1457 1458 1459 1461 1462 1462 1463 1464 1465 1466 1467 1467 1468 1468 1469 1469 1469 1469 1469 1469 1468 1468 1468 1467 1465 1464 1462 1461 1460 1459 1457 1456 1455 1453 1452 1449 1447 1445 1444 1442 1441 1439 1438 1437 1436 1434 1431 1427 1424 1422 1419 1416 1415 1414 1412 1410 1408 1405 1403 1401 1399 1396 1393 1391 1388 1387 1385 1384 1382 1381 1381 1381